Weather History for KJAC - October, 2012

Change the Weather History Date:

Friday, October 5, 2012

  Actual Average Record
Temperature  
Mean Temperature 34 °F -  
Max Temperature 48 °F 59 °F 75 °F (1980)
Min Temperature 19 °F 26 °F 12 °F (2001)
Degree Days  
Heating Degree Days 32    
Moisture  
Dew Point 15 °F    
Average Humidity 55    
Maximum Humidity 86    
Minimum Humidity 10    
Precipitation  
Precipitation 0.00 in - - ()
Sea Level Pressure  
Sea Level Pressure 30.18 in    
Wind  
Wind Speed 10 mph (North)    
Max Wind Speed 16 mph    
Max Gust Speed 22 mph    
Visibility 10 miles    
Events      
Averages and records for this station are not official NWS values.
T = Trace of Precipitation, MM = Missing Value Source: NWS Daily Summary

Daily Weather History Graph

Daily Weather History Graph

Search for Another Location

Airport or City:

Trip Planner

Search our weather history database for the weather conditions in past years. The results will help you decide how hot, cold, wet, or windy it might be!

Date:

Astronomy

Oct. 05, 2012 Rise Set
Actual Time 7:25 AM MDT 6:55 PM MDT
Civil Twilight 6:57 AM MDT 7:24 PM MDT
Nautical Twilight 6:23 AM MDT 7:57 PM MDT
Astronomical Twilight 5:50 AM MDT 8:30 PM MDT
Moon 10:13 PM MDT (10/5) 12:45 PM MDT (10/5)
Length of Visible Light 12h 27m
Length of Day
11h 30m
Waning Gibbous, 73% of the Moon is Illuminated
Oct 5
Waning Gibbous
Oct 8
Last Quarter
Oct 15
New
Oct 21
First Quarter
Oct 29
Full

Hourly Weather History & Observations

Time (MDT) Temp. Windchill Dew Point Humidity Pressure Visibility Wind Dir Wind Speed Gust Speed Precip Events Conditions
12:15 AM 37.4 °F 29.8 °F 21.2 °F 52% 30.14 in 10.0 mi NNE 11.5 mph - N/A   Scattered Clouds
12:35 AM 37.4 °F 28.2 °F 21.2 °F 52% 30.14 in 10.0 mi North 16.1 mph - N/A   Scattered Clouds
12:55 AM 35.6 °F 25.9 °F 23.0 °F 60% 30.14 in 10.0 mi North 16.1 mph - N/A   Mostly Cloudy
1:15 AM 35.6 °F 27.1 °F 23.0 °F 60% 30.15 in 10.0 mi North 12.7 mph - N/A   Scattered Clouds
1:35 AM 33.8 °F 24.8 °F 21.2 °F 60% 30.15 in 10.0 mi North 12.7 mph - N/A   Clear
1:55 AM 32.0 °F 21.6 °F 23.0 °F 69% 30.15 in 10.0 mi North 15.0 mph - N/A   Clear
2:16 AM 30.2 °F 20.8 °F 23.0 °F 75% 30.16 in 10.0 mi North 11.5 mph - N/A   Clear
2:35 AM 30.2 °F 21.9 °F 23.0 °F 75% 30.16 in 10.0 mi North 9.2 mph - N/A   Clear
2:55 AM 30.2 °F 21.9 °F 24.8 °F 80% 30.16 in 10.0 mi North 9.2 mph - N/A   Clear
3:15 AM 30.2 °F 24.3 °F 23.0 °F 75% 30.16 in 10.0 mi NE 5.8 mph - N/A   Clear
3:35 AM 30.2 °F 22.6 °F 23.0 °F 75% 30.16 in 10.0 mi North 8.1 mph - N/A   Clear
3:55 AM 28.4 °F 19.7 °F 23.0 °F 80% 30.17 in 10.0 mi North 9.2 mph - N/A   Clear
4:15 AM 26.6 °F 16.2 °F 21.2 °F 80% 30.17 in 10.0 mi North 11.5 mph - N/A   Clear
4:35 AM 26.6 °F 18.2 °F 21.2 °F 80% 30.17 in 10.0 mi North 8.1 mph - N/A   Clear
4:55 AM 26.6 °F 18.2 °F 21.2 °F 80% 30.17 in 10.0 mi North 8.1 mph - N/A   Clear
5:15 AM 23.0 °F 18.4 °F 19.4 °F 86% 30.17 in 10.0 mi ESE 3.5 mph - N/A   Clear
5:35 AM 24.8 °F 20.5 °F 21.2 °F 86% 30.17 in 10.0 mi ENE 3.5 mph - N/A   Clear
5:55 AM 24.8 °F 20.5 °F 21.2 °F 86% 30.18 in 10.0 mi NE 3.5 mph - N/A   Clear
6:15 AM 23.0 °F - 17.6 °F 80% 30.18 in 10.0 mi Calm Calm - N/A   Clear
6:35 AM 21.2 °F 14.9 °F 17.6 °F 86% 30.19 in 10.0 mi ENE 4.6 mph - N/A   Clear
6:52 AM 19.4 °F - 15.8 °F 86% 30.19 in 10.0 mi Calm Calm - N/A   Clear
7:52 AM 19.4 °F - 15.8 °F 86% 30.21 in 10.0 mi Calm Calm - N/A   Partly Cloudy
8:51 AM 26.6 °F - 21.2 °F 80% 30.22 in 10.0 mi Calm Calm - N/A   Partly Cloudy
9:51 AM 33.8 °F - 21.2 °F 60% 30.23 in 10.0 mi Calm Calm - N/A   Partly Cloudy
10:53 AM 37.4 °F - 21.2 °F 52% 30.22 in 10.0 mi Calm Calm - N/A   Clear
11:54 AM 42.8 °F 41.1 °F 15.8 °F 34% 30.20 in 10.0 mi South 3.5 mph - N/A   Clear
12:53 PM 46.4 °F 42.4 °F 10.4 °F 23% 30.18 in 10.0 mi SSE 8.1 mph - N/A   Clear
1:55 PM 48.2 °F - -5.8 °F 10% 30.15 in 10.0 mi West 12.7 mph 21.9 mph N/A   Clear
2:52 PM 48.2 °F - -4.0 °F 11% 30.15 in 10.0 mi WNW 10.4 mph 18.4 mph N/A   Clear
3:51 PM 48.2 °F - -0.4 °F 13% 30.15 in 10.0 mi WSW 11.5 mph 21.9 mph N/A   Clear
5:53 PM 44.6 °F 41.4 °F -2.2 °F 14% 30.16 in 10.0 mi West 5.8 mph 17.3 mph N/A   Clear
6:52 PM 39.2 °F 32.5 °F -0.4 °F 19% 30.17 in 10.0 mi West 10.4 mph - N/A   Clear
7:52 PM 37.4 °F - 1.4 °F 22% 30.18 in 10.0 mi Calm Calm - N/A   Clear
8:51 PM 37.4 °F 31.4 °F 3.2 °F 24% 30.19 in 10.0 mi West 8.1 mph - N/A   Clear
9:15 PM 35.6 °F 27.1 °F 12.2 °F 38% 30.21 in 10.0 mi NNE 12.7 mph 18.4 mph N/A   Clear
9:35 PM 35.6 °F 27.1 °F 12.2 °F 38% 30.22 in 10.0 mi North 12.7 mph 21.9 mph N/A   Clear
9:55 PM 33.8 °F 24.3 °F 12.2 °F 41% 30.22 in 10.0 mi North 13.8 mph - N/A   Clear
10:15 PM 33.8 °F 23.9 °F 12.2 °F 41% 30.22 in 10.0 mi North 15.0 mph - N/A   Partly Cloudy
10:55 PM 32.0 °F 22.1 °F 12.2 °F 44% 30.23 in 10.0 mi North 13.8 mph - N/A   Partly Cloudy
11:15 PM 33.8 °F 24.3 °F 10.4 °F 38% 30.23 in 10.0 mi North 13.8 mph - N/A   Scattered Clouds
11:35 PM 33.8 °F 25.3 °F 10.4 °F 38% 30.24 in 10.0 mi North 11.5 mph - N/A   Overcast
11:55 PM 33.8 °F 23.9 °F 10.4 °F 38% 30.24 in 10.0 mi North 15.0 mph - N/A   Overcast